Stations météo

réclame
Mon MeteoGroup
Woensdrecht, Pays-Bas (6340): Température de l'air & dewpoint: 17.01.2020 22:00:00 - 23.01.2020 22:00:00 (CET)Woensdrecht, Pays-Bas (6340): Température de l'air 5cm: 17.01.2020 22:00:00 - 23.01.2020 22:00:00 (CET)Woensdrecht, Pays-Bas (6340): Vitesse du vent & gusts: 17.01.2020 22:00:00 - 23.01.2020 22:00:00 (CET)Woensdrecht, Pays-Bas (6340): Direction du vent: 17.01.2020 22:00:00 - 23.01.2020 22:00:00 (CET)Woensdrecht, Pays-Bas (6340): reduced air pressure: 17.01.2020 22:00:00 - 23.01.2020 22:00:00 (CET)Woensdrecht, Pays-Bas (6340): visibility: 17.01.2020 22:00:00 - 23.01.2020 22:00:00 (CET)Woensdrecht, Pays-Bas (6340): Quantités de précipitations: 17.01.2020 22:00:00 - 23.01.2020 22:00:00 (CET)
Date & Time tt [°C] td [°C] tt 5cm [°C] ff [km/h] ff [knt] fx [km/h] fx [knt] dd ppp [hPa] vv [km] rr [mm]
23.01.2020 22:00:00 3,0 1,8 3,1 9 5 14 8 ENE 1027,1 4,7 0,0
23.01.2020 21:00:00 3,1 1,3 3,1 11 6 18 10 ENE 1027,3 7 0,0
23.01.2020 20:00:00 3,4 1,1 3,4 9 5 18 10 E 1027,7 9 0,0
23.01.2020 19:00:00 3,8 1,4 3,7 8 4 14 8 E 1028,0 9 0,0
23.01.2020 18:00:00 4,3 1,7 4,3 8 4 14 8 E 1028,3 9 0,0
23.01.2020 17:00:00 4,7 1,5 4,6 8 4 22 12 E 1028,6 9 0,0
23.01.2020 16:00:00 5,2 1,8 5,3 9 5 18 10 E 1029,2 10 0,0
23.01.2020 15:00:00 5,5 1,7 5,6 13 7 22 12 E 1029,9 10 0,0
23.01.2020 14:00:00 5,9 1,9 6,4 15 8 22 12 ENE 1030,7 10 0,0
23.01.2020 13:00:00 6,2 3,5 7,4 15 8 22 12 ENE 1031,4 10 0,0
23.01.2020 12:00:00 5,1 3,8 5,8 9 5 14 8 E 1032,5 5 0,0
23.01.2020 11:00:00 4,7 3,8 5,2 8 4 11 6 E 1033,1 4,5 0,0
23.01.2020 10:00:00 4,6 4,1 4,8 8 4 11 6 ENE 1033,3 2,9 0,0
23.01.2020 09:00:00 4,5 4,5 4,7 5 3 7 4 E 1033,4 0,3 0,0
23.01.2020 08:00:00 4,4 4,4 4,5 4 2 7 4 E 1033,5 2,2 0,0
23.01.2020 07:00:00 4,3 4,2 4,2 8 4 7 4 ENE 1033,6 2,0 0,0
23.01.2020 06:00:00 4,2 4,1 4,2 5 3 11 6 NE 1033,9 2,2 0,0
23.01.2020 05:00:00 4,3 4,2 4,3 8 4 11 6 ENE 1034,3 1,5 0,0
23.01.2020 04:00:00 4,5 4,5 4,4 4 2 7 4 ENE 1034,9 2,2 0,0
23.01.2020 03:00:00 4,4 4,4 4,5 5 3 7 4 ENE 1035,7 1,7 0,0
23.01.2020 02:00:00 4,5 4,3 4,5 2 1 7 4 - 1035,9 1,7 0,0
23.01.2020 01:00:00 4,5 4,5 4,5 0 0 4 2 N 1036,3 1,6 0,0
23.01.2020 00:00:00 4,5 4,5 4,5 2 1 4 2 SSE 1036,6 1,4 0,0
22.01.2020 23:00:00 4,7 4,7 4,7 2 1 4 2 S 1036,9 2,1 0,0
22.01.2020 22:00:00 4,6 4,5 4,7 2 1 4 2 SE 1037,0 0,8 0,0
22.01.2020 21:00:00 4,5 4,5 4,7 2 1 4 2 W 1037,0 0,3 0,0
22.01.2020 20:00:00 4,5 4,5 4,6 2 1 4 2 W 1036,9 0,3 0,0
22.01.2020 19:00:00 4,4 4,4 4,5 4 2 7 4 W 1036,8 0,7 0,0
22.01.2020 18:00:00 4,3 4,2 4,5 4 2 7 4 W 1036,6 1,4 0,0
22.01.2020 17:00:00 4,3 4,2 4,4 4 2 7 4 - 1036,5 0,7 0,0
22.01.2020 16:00:00 4,3 4,0 4,5 5 3 7 4 W 1036,7 1,6 0,0
22.01.2020 15:00:00 4,0 3,8 4,3 9 5 11 6 W 1036,6 1,8 0,0
22.01.2020 14:00:00 3,8 3,4 4,3 8 4 11 6 WSW 1036,6 1,7 0,0
22.01.2020 13:00:00 3,5 3,3 4,1 5 3 11 6 W 1037,2 1,1 0,0
22.01.2020 12:00:00 3,0 2,8 3,6 5 3 11 6 WSW 1037,7 1,2 0,0
22.01.2020 11:00:00 2,5 2,2 3,0 5 3 7 4 W 1037,8 1,9 0,0
22.01.2020 10:00:00 1,9 1,7 2,1 5 3 7 4 WSW 1037,4 1,3 0,0
22.01.2020 09:00:00 1,4 1,4 1,7 5 3 11 6 SW 1037,6 0,9 0,0
22.01.2020 08:00:00 1,4 1,4 1,6 5 3 11 6 SW 1037,0 0,4 0,0
22.01.2020 07:00:00 1,6 1,6 1,7 5 3 11 6 SW 1037,1 0,3 0,0
22.01.2020 06:00:00 1,4 1,4 1,6 5 3 11 6 SW 1037,1 0,3 0,0
22.01.2020 05:00:00 1,4 1,4 1,6 4 2 7 4 WSW 1037,8 0,3 0,0
22.01.2020 04:00:00 1,5 1,5 1,7 5 3 11 6 W 1038,0 0,4 0,0
22.01.2020 03:00:00 1,7 1,7 1,8 5 3 11 6 WSW 1038,3 0,4 0,0
22.01.2020 02:00:00 1,3 1,3 1,4 4 2 11 6 SW 1038,4 0,4 0,0
22.01.2020 01:00:00 1,2 1,1 1,3 8 4 11 6 S 1038,9 0,3 0,0
22.01.2020 00:00:00 0,9 0,9 1,1 5 3 14 8 WNW 1039,7 0,3 0,0
21.01.2020 23:00:00 1,0 1,0 1,1 2 1 11 6 WNW 1039,2 0,2 0,0
21.01.2020 22:00:00 0,7 0,7 0,8 5 3 11 6 SSW 1039,9 0,2 0,0
21.01.2020 21:00:00 0,4 0,4 0,7 4 2 11 6 - 1040,0 0,3 0,0
21.01.2020 20:00:00 0,4 0,4 0,7 5 3 7 4 SSW 1040,3 0,2 0,0
21.01.2020 19:00:00 0,3 0,3 0,6 8 4 11 6 WSW 1040,6 0,2 0,0
21.01.2020 18:00:00 0,6 0,4 0,9 4 2 11 6 - 1040,8 0,3 0,0
21.01.2020 17:00:00 1,1 0,8 1,4 5 3 11 6 S 1040,9 0,3 0,0
21.01.2020 16:00:00 1,5 1,3 2,0 8 4 11 6 SW 1041,0 0,5 0,0
21.01.2020 15:00:00 1,7 1,0 2,6 5 3 11 6 SSW 1041,3 2,2 0,0
21.01.2020 14:00:00 2,0 1,3 2,7 8 4 14 8 SSW 1041,8 2,1 0,0
21.01.2020 13:00:00 1,4 1,0 2,3 8 4 14 8 SW 1042,3 1,4 0,0
21.01.2020 12:00:00 1,1 0,9 1,9 9 5 14 8 SSW 1043,1 0,6 0,0
21.01.2020 11:00:00 1,0 0,9 1,5 8 4 14 8 WSW 1043,4 0,6 0,0
21.01.2020 10:00:00 0,8 0,6 1,2 8 4 14 8 SSW 1043,1 1,3 0,0
21.01.2020 09:00:00 0,9 0,9 1,1 8 4 11 6 SW 1042,8 1,3 0,0
21.01.2020 08:00:00 1,1 1,0 1,3 5 3 14 8 SW 1042,8 0,6 0,0
21.01.2020 07:00:00 1,2 1,1 1,4 4 2 14 8 - 1042,8 0,4 0,0
21.01.2020 06:00:00 1,4 1,4 1,5 5 3 14 8 SSW 1042,9 0,3 0,0
21.01.2020 05:00:00 1,5 1,5 1,5 4 2 14 8 SSW 1043,2 0,4 0,0
21.01.2020 04:00:00 1,3 1,2 1,2 5 3 14 8 S 1043,7 0,3 0,0
21.01.2020 03:00:00 0,9 0,9 0,7 5 3 11 6 S 1044,2 0,3 0,0
21.01.2020 02:00:00 0,0 -0,6 -1,3 5 3 14 8 - 1044,6 3,3 0,0
21.01.2020 01:00:00 -1,0 -1,0 -1,5 2 1 7 4 ESE 1044,9 0,3 0,0
21.01.2020 00:00:00 -0,5 -0,6 -1,6 2 1 7 4 SSE 1045,1 0,2 0,0
20.01.2020 23:00:00 0,2 0,2 -1,2 2 1 4 2 - 1045,3 0,4 0,0
20.01.2020 22:00:00 2,8 2,8 2,1 2 1 11 6 - 1045,7 3,6 0,0
20.01.2020 21:00:00 2,3 2,3 0,9 2 1 7 4 S 1046,0 3,0 0,0
20.01.2020 20:00:00 2,5 2,5 1,1 0 0 4 2 N 1045,9 1,6 0,0
20.01.2020 19:00:00 3,7 3,1 2,7 2 1 7 4 S 1046,3 6 0,0
20.01.2020 18:00:00 4,4 3,9 3,4 4 2 7 4 S 1046,3 6 0,0
20.01.2020 17:00:00 5,1 3,9 4,8 5 3 11 6 WSW 1046,6 6 0,0
20.01.2020 16:00:00 5,5 4,1 5,6 5 3 11 6 SSW 1046,7 7 0,0
20.01.2020 15:00:00 5,6 4,0 5,9 9 5 14 8 WSW 1047,0 10 0,0
20.01.2020 14:00:00 6,3 4,9 6,7 5 3 11 6 SW 1047,7 7 0,0
20.01.2020 13:00:00 5,7 4,7 6,3 8 4 11 6 S 1048,1 10 0,0
20.01.2020 12:00:00 5,6 5,3 5,8 4 2 7 4 WSW 1048,3 5 0,0
20.01.2020 11:00:00 2,7 2,6 2,3 0 0 4 2 N 1048,6 1,2 0,0
20.01.2020 10:00:00 0,7 0,3 0,4 2 1 4 2 SSW 1048,4 6 0,0
20.01.2020 09:00:00 0,0 -0,1 -0,5 0 0 4 2 N 1048,1 5 0,0
20.01.2020 08:00:00 -0,1 -0,2 -0,9 0 0 4 2 N 1047,9 5 0,0
20.01.2020 07:00:00 -0,5 -0,7 -1,2 2 1 4 2 WSW 1047,8 4,5 0,0
20.01.2020 06:00:00 -1,2 -1,8 -1,9 2 1 4 2 WSW 1047,7 8 0,0
20.01.2020 05:00:00 -1,9 -1,9 -3,2 2 1 0 0 WSW 1047,6 7 0,0
20.01.2020 04:00:00 -2,0 -2,4 -4,4 0 0 4 2 N 1047,5 2,2 0,0
20.01.2020 03:00:00 -2,5 -2,7 -4,4 0 0 4 2 N 1047,7 6 0,0
20.01.2020 02:00:00 -2,2 -2,3 -4,4 2 1 4 2 WSW 1047,5 2,7 0,0
20.01.2020 01:00:00 -1,9 -2,1 -4,2 2 1 4 2 WSW 1047,4 7 0,0
20.01.2020 00:00:00 -1,7 -1,7 -3,7 2 1 7 4 NNW 1047,6 5 0,0
19.01.2020 23:00:00 -1,3 -1,3 -3,6 2 1 4 2 - 1047,2 7 0,0
19.01.2020 22:00:00 0,9 0,4 -2,9 4 2 11 6 - 1046,8 8 0,0
19.01.2020 21:00:00 -0,7 -1,5 -3,3 5 3 7 4 N 1046,4 10 0,0
19.01.2020 20:00:00 0,2 -0,3 -2,3 2 1 7 4 - 1045,8 10 0,0
19.01.2020 19:00:00 1,2 0,3 -1,4 2 1 7 4 N 1045,1 10 0,0
19.01.2020 18:00:00 2,4 0,4 -0,4 4 2 7 4 - 1044,4 10 0,0
19.01.2020 17:00:00 5,5 1,1 3,2 8 4 14 8 NNE 1043,4 10 0,0
19.01.2020 16:00:00 6,6 1,6 5,6 11 6 32 18 NNE 1042,7 10 0,0
19.01.2020 15:00:00 8,0 1,2 7,8 21 11 32 18 NNE 1041,8 10 0,0
19.01.2020 14:00:00 7,9 1,7 8,1 22 12 32 18 NNE 1041,3 10 0,0
19.01.2020 13:00:00 7,8 2,3 8,0 18 10 36 19 NNE 1040,9 10 0,0
19.01.2020 12:00:00 7,3 2,6 7,3 13 7 25 14 N 1040,6 10 0,0
19.01.2020 11:00:00 6,0 2,0 5,4 8 4 14 8 N 1040,2 10 0,0
19.01.2020 10:00:00 4,1 1,4 2,5 5 3 14 8 N 1039,0 10 0,0
19.01.2020 09:00:00 2,8 1,5 -0,4 8 4 18 10 NW 1037,8 10 0,0
19.01.2020 08:00:00 2,6 1,4 0,9 8 4 18 10 - 1036,5 10 0,0
19.01.2020 07:00:00 0,5 -0,1 -1,3 4 2 11 6 - 1035,4 10 0,0
19.01.2020 06:00:00 3,1 1,9 1,5 9 5 25 14 NW 1035,0 10 0,0
19.01.2020 05:00:00 1,4 0,8 0,6 2 1 32 18 - 1034,5 10 0,2
19.01.2020 04:00:00 0,5 -0,5 -2,1 5 3 11 6 W 1033,9 10 0,0
19.01.2020 03:00:00 1,5 -0,1 -0,7 5 3 14 8 NW 1033,5 10 0,0
19.01.2020 02:00:00 3,4 1,1 1,4 8 4 11 6 NNW 1032,8 10 0,0
19.01.2020 01:00:00 3,4 1,1 1,1 8 4 18 10 WNW 1032,0 10 0,0
19.01.2020 00:00:00 3,9 1,6 2,1 8 4 18 10 WNW 1031,5 10 0,0
18.01.2020 23:00:00 4,0 1,8 2,0 9 5 18 10 WNW 1030,8 10 0,2
18.01.2020 22:00:00 3,4 2,3 1,5 8 4 14 8 W 1030,6 10 0,0
18.01.2020 21:00:00 2,7 1,6 1,1 9 5 22 12 W 1030,2 10 0,0
18.01.2020 20:00:00 4,4 1,8 3,3 15 8 22 12 W 1029,5 10 0,0
18.01.2020 19:00:00 3,8 1,4 2,2 13 7 18 10 W 1029,1 10 0,0
18.01.2020 18:00:00 4,2 1,3 3,1 11 6 22 12 W 1028,3 10 0,0
18.01.2020 17:00:00 5,3 1,8 4,2 11 6 25 14 WNW 1027,7 10 0,0
18.01.2020 16:00:00 6,1 2,1 5,9 16 9 32 18 W 1026,8 10 0,0
18.01.2020 15:00:00 6,7 2,5 6,8 18 10 29 16 WNW 1026,3 10 0,0
18.01.2020 14:00:00 6,9 2,7 6,3 18 10 29 16 W 1025,8 10 0,0
18.01.2020 13:00:00 6,8 2,8 6,6 16 9 29 16 W 1025,4 10 0,0
18.01.2020 12:00:00 6,6 3,8 7,4 18 10 29 16 WSW 1025,3 10 0,0
18.01.2020 11:00:00 5,4 3,7 5,3 15 8 22 12 WSW 1025,0 10 0,0
18.01.2020 10:00:00 4,1 2,9 3,7 13 7 22 12 SW 1024,3 10 0,0
18.01.2020 09:00:00 3,8 2,7 3,5 13 7 18 10 SW 1023,3 10 0,0
18.01.2020 08:00:00 2,9 1,9 2,1 9 5 22 12 SW 1022,6 10 0,0
18.01.2020 07:00:00 3,6 2,2 2,7 13 7 25 14 SW 1022,0 10 0,0
18.01.2020 06:00:00 3,6 2,3 2,8 15 8 25 14 SW 1021,4 10 0,0
18.01.2020 05:00:00 3,8 2,3 3,0 15 8 36 19 SW 1021,0 10 0,0
18.01.2020 04:00:00 4,9 2,5 4,4 18 10 36 19 SW 1021,1 10 0,0
18.01.2020 03:00:00 4,6 2,5 4,1 18 10 25 14 WSW 1020,9 10 0,0
18.01.2020 02:00:00 4,4 2,2 3,5 13 7 32 18 SW 1020,6 10 0,0
18.01.2020 01:00:00 4,6 2,6 3,7 15 8 25 14 SW 1020,2 10 0,0
18.01.2020 00:00:00 4,8 2,4 3,8 15 8 25 14 SW 1019,8 10 0,0
17.01.2020 23:00:00 5,4 2,0 4,2 13 7 25 14 SW 1019,3 10 0,0
17.01.2020 22:00:00 5,5 1,7 3,9 11 6 22 12 SW 1018,8 10 0,0

tt = Température de l'air
td = dewpoint
tt 5cm = Température de l'air 5cm
ff = Vitesse du vent
fx = gusts
dd = Direction du vent
ppp = reduced air pressure
vv = visibility
rr = Quantités de précipitations

stations d'obs. à proximité